H1 CPF 1 NER 2013 10 31 9 8041 glonass107 H2 0706501 9107 32393 2013 10 31 0 0 0 2013 11 3 23 45 0 900 1 1 0 0 0 H9 10 0 56596 0.00000 0 -17852621.377 11369875.212 -14237401.696 10 0 56596 900.00000 0 -16568577.532 9953418.637 -16649333.402 10 0 56596 1800.00000 0 -15241050.240 8214618.367 -18737974.056 10 0 56596 2700.00000 0 -13930969.117 6178132.861 -20462864.782 10 0 56596 3600.00000 0 -12694938.433 3880829.468 -21790622.519 10 0 56596 4500.00000 0 -11582860.142 1370498.585 -22695577.750 10 0 56596 5400.00000 0 -10635858.940 -1295887.247 -23160262.454 10 0 56596 6300.00000 0 -9884595.350 -4054297.652 -23175739.876 10 0 56596 7200.00000 0 -9348036.316 -6836064.591 -22741770.619 10 0 56596 8100.00000 0 -9032733.634 -9570499.020 -21866812.551 10 0 56596 9000.00000 0 -8932639.367 -12187596.679 -20567854.850 10 0 56596 9900.00000 0 -9029465.188 -14620721.955 -18870089.500 10 0 56596 10800.00000 0 -9293570.009 -16809159.739 -16806426.265 10 0 56596 11700.00000 0 -9685338.401 -18700430.533 -14416859.974 10 0 56596 12600.00000 0 -10156991.904 -20252273.506 -11747701.689 10 0 56596 13500.00000 0 -10654757.206 -21434215.849 -8850687.809 10 0 56596 14400.00000 0 -11121300.195 -22228663.642 -5781983.560 10 0 56596 15300.00000 0 -11498323.515 -22631469.051 -2601099.592 10 0 56596 16200.00000 0 -11729218.185 -22651950.427 630257.851 10 0 56596 17100.00000 0 -11761657.239 -22312364.581 3849381.197 10 0 56596 18000.00000 0 -11550021.531 -21646853.358 6993777.066 10 0 56596 18900.00000 0 -11057554.602 -20699908.763 10002379.415 10 0 56596 19800.00000 0 -10258154.684 -19524421.078 12816736.549 10 0 56596 20700.00000 0 -9137727.038 -18179392.030 15382148.583 10 0 56596 21600.00000 0 -7695038.174 -16727409.159 17648733.029 10 0 56596 22500.00000 0 -5942034.345 -15231987.609 19572397.557 10 0 56596 23400.00000 0 -3903609.258 -13754891.120 21115700.766 10 0 56596 24300.00000 0 -1616828.949 -12353544.858 22248584.152 10 0 56596 25200.00000 0 870355.419 -11078648.751 22948960.914 10 0 56596 26100.00000 0 3500854.543 -9972091.598 23203150.047 10 0 56596 27000.00000 0 6210576.230 -9065253.492 23006147.134 10 0 56596 27900.00000 0 8930861.027 -8377767.739 22361726.369 10 0 56596 28800.00000 0 11591117.548 -7916794.191 21282371.520 10 0 56596 29700.00000 0 14121548.359 -7676834.298 19789036.802 10 0 56596 30600.00000 0 16455853.270 -7640095.418 17910741.904 10 0 56596 31500.00000 0 18533797.425 -7777388.672 15684008.643 10 0 56596 32400.00000 0 20303537.193 -8049522.026 13152149.921 10 0 56596 33300.00000 0 21723606.719 -8409129.223 10364424.605 10 0 56596 34200.00000 0 22764482.090 -8802856.588 7375074.901 10 0 56596 35100.00000 0 23409657.859 -9173814.365 4242265.212 10 0 56596 36000.00000 0 23656191.227 -9464187.940 1026943.657 10 0 56596 36900.00000 0 23514691.644 -9617897.389 -2208350.813 10 0 56596 37800.00000 0 23008757.237 -9583191.753 -5400711.630 10 0 56596 38700.00000 0 22173882.844 -9315067.277 -8488093.562 10 0 56596 39600.00000 0 21055886.836 -8777406.509 -11410522.565 10 0 56596 40500.00000 0 19708924.153 -7944747.169 -14111262.512 10 0 56596 41400.00000 0 18193170.230 -6803605.580 -16537915.830 10 0 56596 42300.00000 0 16572274.064 -5353298.565 -18643436.627 10 0 56596 43200.00000 0 14910687.930 -3606228.875 -20387037.079 10 0 56596 44100.00000 0 13270985.874 -1587621.864 -21734970.199 10 0 56596 45000.00000 0 11711283.125 665275.882 -22661174.702 10 0 56596 45900.00000 0 10282863.761 3104502.996 -23147770.551 10 0 56596 46800.00000 0 9028114.796 5673141.070 -23185396.649 10 0 56596 47700.00000 0 7978851.884 8307451.268 -22773385.034 10 0 56596 48600.00000 0 7155105.194 10939302.022 -21919768.930 10 0 56596 49500.00000 0 6564414.877 13498788.150 -20641124.876 10 0 56596 50400.00000 0 6201664.389 15916933.752 -18962252.046 10 0 56596 51300.00000 0 6049457.672 18128367.882 -16915694.708 10 0 56596 52200.00000 0 6079023.626 20073862.975 -14541116.496 10 0 56596 53100.00000 0 6251609.541 21702631.322 -11884537.942 10 0 56596 54000.00000 0 6520304.697 22974284.822 -8997451.208 10 0 56596 54900.00000 0 6832217.400 23860376.791 -5935828.347 10 0 56596 55800.00000 0 7130913.782 24345461.753 -2759041.717 10 0 56596 56700.00000 0 7359015.519 24427628.998 471283.064 10 0 56596 57600.00000 0 7460846.712 24118487.521 3692459.709 10 0 56596 58500.00000 0 7385017.867 23442602.791 6841956.266 10 0 56596 59400.00000 0 7086837.271 22436408.757 9858608.905 10 0 56596 60300.00000 0 6530447.078 21146640.517 12683810.770 10 0 56596 61200.00000 0 5690592.903 19628353.255 15262652.400 10 0 56596 62100.00000 0 4553950.931 17942610.461 17544991.372 10 0 56596 63000.00000 0 3119955.071 16153938.314 19486430.094 10 0 56596 63900.00000 0 1401087.750 14327653.019 21049182.512 10 0 56596 64800.00000 0 -577379.658 12527173.102 22202812.751 10 0 56596 65700.00000 0 -2778187.671 10811429.234 22924831.258 10 0 56596 66600.00000 0 -5153398.862 9232480.112 23201136.670 10 0 56596 67500.00000 0 -7646164.155 7833434.090 23026294.761 10 0 56596 68400.00000 0 -10192872.797 6646763.430 22403648.766 10 0 56596 69300.00000 0 -12725597.285 5693081.598 21345258.712 10 0 56596 70200.00000 0 -15174732.040 4980434.458 19871670.528 10 0 56596 71100.00000 0 -17471716.290 4504134.648 18011519.046 10 0 56596 72000.00000 0 -19551727.684 4247145.531 15800972.219 10 0 56596 72900.00000 0 -21356234.207 4180997.855 13283027.075 10 0 56596 73800.00000 0 -22835297.686 4267199.657 10506670.870 10 0 56596 74700.00000 0 -23949532.258 4459079.003 7525923.903 10 0 56596 75600.00000 0 -24671635.771 4703980.670 4398782.823 10 0 56596 76500.00000 0 -24987429.928 4945722.713 1186085.505 10 0 56596 77400.00000 0 -24896365.784 5127207.837 -2049679.639 10 0 56596 78300.00000 0 -24411473.922 5193077.828 -5245595.936 10 0 56596 79200.00000 0 -23558762.129 5092297.589 -8339547.665 10 0 56596 80100.00000 0 -22376086.896 4780558.462 -11271431.446 10 0 56596 81000.00000 0 -20911547.214 4222398.421 -13984325.650 10 0 56596 81900.00000 0 -19221469.168 3392948.936 -16425594.836 10 0 56596 82800.00000 0 -17368066.863 2279234.415 -18547907.676 10 0 56596 83700.00000 0 -15416878.407 880969.177 -20310149.041 10 0 56596 84600.00000 0 -13434084.591 -789181.865 -21678209.233 10 0 56596 85500.00000 0 -11483822.368 -2705889.967 -22625635.943 10 0 56597 0.00000 0 -9625604.818 -4831985.173 -23134137.390 10 0 56597 900.00000 0 -7911954.462 -7119781.325 -23193927.955 10 0 56597 1800.00000 0 -6386347.055 -9512848.044 -22803910.507 10 0 56597 2700.00000 0 -5081551.157 -11948158.016 -21971692.646 10 0 56597 3600.00000 0 -4018429.900 -14358520.386 -20713436.958 10 0 56597 4500.00000 0 -3205254.627 -16675200.580 -19053548.205 10 0 56597 5400.00000 0 -2637557.197 -18830618.691 -17024203.316 10 0 56597 6300.00000 0 -2298526.193 -20761015.314 -14664732.693 10 0 56597 7200.00000 0 -2159929.628 -22408974.694 -12020864.158 10 0 56597 8100.00000 0 -2183524.847 -23725700.829 -9143843.358 10 0 56597 9000.00000 0 -2322896.031 -24672952.022 -6089446.839 10 0 56597 9900.00000 0 -2525641.811 -25224553.250 -2916906.321 10 0 56597 10800.00000 0 -2735820.618 -25367423.090 312235.561 10 0 56597 11700.00000 0 -2896550.471 -25102071.969 3535316.158 10 0 56597 12600.00000 0 -2952653.138 -24442550.461 6689767.285 10 0 56597 13500.00000 0 -2853230.533 -23415849.363 9714329.673 10 0 56597 14400.00000 0 -2554063.814 -22060776.220 12550243.616 10 0 56597 15300.00000 0 -2019732.998 -20426354.985 15142392.335 10 0 56597 16200.00000 0 -1225366.453 -18569815.539 17440375.609 10 0 56597 17100.00000 0 -157945.162 -16554257.014 19399492.559 10 0 56597 18000.00000 0 1182894.666 -14446082.593 20981614.218 10 0 56597 18900.00000 0 2784596.051 -12312312.977 22155928.816 10 0 56597 19800.00000 0 4621965.613 -10217890.739 22899545.194 10 0 56597 20700.00000 0 6657997.558 -8223088.171 23197942.462 10 0 56597 21600.00000 0 8845204.378 -6381126.774 23045257.067 10 0 56597 22500.00000 0 11127399.988 -4736107.609 22444401.466 10 0 56597 23400.00000 0 13441861.920 -3321338.785 21407011.802 10 0 56597 24300.00000 0 15721783.110 -2158129.565 19953225.289 10 0 56597 25200.00000 0 17898911.492 -1255101.015 18111291.179 10 0 56597 26100.00000 0 19906267.307 -608041.457 15917022.535 10 0 56597 27000.00000 0 21680824.596 -200311.898 13413099.162 10 0 56597 27900.00000 0 23166044.520 -3783.427 10648235.028 10 0 56597 28800.00000 0 24314154.051 19734.008 7676226.480 10 0 56597 29700.00000 0 25088074.259 -83367.063 4554900.021 10 0 56597 30600.00000 0 25462917.028 -260700.328 1344980.559 10 0 56597 31500.00000 0 25426987.274 -456349.755 -1891097.016 10 0 56597 32400.00000 0 24982248.727 -613483.401 -5090409.055 10 0 56597 33300.00000 0 24144234.073 -677005.098 -8190772.542 10 0 56597 34200.00000 0 22941403.886 -596130.736 -11131957.865 10 0 56597 35100.00000 0 21413982.029 -326779.234 -13856860.829 10 0 56597 36000.00000 0 19612317.284 166323.519 -16312610.815 10 0 56597 36900.00000 0 17594840.721 907917.065 -18451593.476 10 0 56597 37800.00000 0 15425704.993 1910928.215 -20232368.500 10 0 56597 38700.00000 0 13172204.647 3175696.364 -21620465.321 10 0 56597 39600.00000 0 10902085.261 4689734.972 -22589042.180 10 0 56597 40500.00000 0 8680853.250 6428039.449 -23119396.850 10 0 56597 41400.00000 0 6569197.669 8353929.021 -23201320.190 10 0 56597 42300.00000 0 4620630.307 10420387.852 -22833286.583 10 0 56597 43200.00000 0 2879440.883 12571850.311 -22022478.359 10 0 56597 44100.00000 0 1379050.934 14746356.867 -20784644.101 10 0 56597 45000.00000 0 140833.403 16877991.812 -19143793.711 10 0 56597 45900.00000 0 -826554.382 18899502.377 -17131735.906 10 0 56597 46800.00000 0 -1527297.850 20744991.194 -14787466.555 10 0 56597 47700.00000 0 -1978008.226 22352570.724 -12156419.046 10 0 56597 48600.00000 0 -2206779.791 23666869.623 -9289590.380 10 0 56597 49500.00000 0 -2251761.566 24641286.853 -6242559.097 10 0 56597 50400.00000 0 -2159303.852 25239899.412 -3074413.435 10 0 56597 51300.00000 0 -1981757.943 25438943.742 153390.052 10 0 56597 52200.00000 0 -1775022.061 25227808.416 3378215.641 10 0 56597 53100.00000 0 -1595937.296 24609495.910 6537462.302 10 0 56597 54000.00000 0 -1499643.947 23600533.441 9569778.701 10 0 56597 54900.00000 0 -1537010.456 22230335.855 12416255.581 10 0 56597 55800.00000 0 -1752244.247 20540046.569 15021571.982 10 0 56597 56700.00000 0 -2180786.305 18580904.473 17335072.821 10 0 56597 57600.00000 0 -2847579.409 16412204.573 19311756.604 10 0 56597 58500.00000 0 -3765784.322 14098937.298 20913153.836 10 0 56597 59400.00000 0 -4935999.403 11709204.744 22108078.905 10 0 56597 60300.00000 0 -6346017.989 9311521.495 22873240.742 10 0 56597 61200.00000 0 -7971135.246 6972112.449 23193700.212 10 0 56597 62100.00000 0 -9774993.097 4752320.175 23063165.271 10 0 56597 63000.00000 0 -11710929.263 2706229.615 22484117.915 10 0 56597 63900.00000 0 -13723775.029 878608.992 21467770.187 10 0 56597 64800.00000 0 -15752027.491 -696747.606 20033849.790 10 0 56597 65700.00000 0 -17730306.051 -1998207.280 18210219.023 10 0 56597 66600.00000 0 -19591990.666 -3016966.002 16032334.140 10 0 56597 67500.00000 0 -21271931.450 -3757169.862 13542555.289 10 0 56597 68400.00000 0 -22709115.961 -4235485.803 10789320.288 10 0 56597 69300.00000 0 -23849181.877 -4480141.071 7826198.344 10 0 56597 70200.00000 0 -24646669.194 -4529473.138 4710842.384 10 0 56597 71100.00000 0 -25066916.899 -4430052.709 1503860.811 10 0 56597 72000.00000 0 -25087523.974 -4234460.509 -1732368.596 10 0 56597 72900.00000 0 -24699313.175 -3998813.309 -4934918.762 10 0 56597 73800.00000 0 -23906757.038 -3780145.230 -8041542.820 10 0 56597 74700.00000 0 -22727848.478 -3633756.291 -10991888.223 10 0 56597 75600.00000 0 -21193421.851 -3610641.401 -13728671.292 10 0 56597 76500.00000 0 -19345953.569 -3755109.248 -16198789.028 10 0 56597 77400.00000 0 -17237893.155 -4102692.121 -18354346.497 10 0 56597 78300.00000 0 -14929595.149 -4678435.124 -20153580.205 10 0 56597 79200.00000 0 -12486938.628 -5495636.977 -21561660.198 10 0 56597 80100.00000 0 -9978733.770 -6555095.328 -22551356.186 10 0 56597 81000.00000 0 -7474023.255 -7844888.327 -23103555.836 10 0 56597 81900.00000 0 -5039390.111 -9340701.765 -23207626.279 10 0 56597 82800.00000 0 -2736383.023 -11006688.339 -22861612.705 10 0 56597 83700.00000 0 -619164.805 -12796823.671 -22072271.017 10 0 56597 84600.00000 0 1267519.782 -14656703.148 -20854934.291 10 0 56597 85500.00000 0 2889973.863 -16525705.418 -19233215.772 10 0 56598 0.00000 0 4226709.773 -18339433.237 -17238553.984 10 0 56598 900.00000 0 5269094.832 -20032330.798 -14909607.952 10 0 56598 1800.00000 0 6021456.284 -21540369.164 -12291514.325 10 0 56598 2700.00000 0 6500641.263 -22803687.970 -9435018.988 10 0 56598 3600.00000 0 6735052.096 -23769084.022 -6395499.932 10 0 56598 4500.00000 0 6763197.203 -24392242.165 -3231899.335 10 0 56598 5400.00000 0 6631819.355 -24639615.154 -5585.076 10 0 56598 6300.00000 0 6393680.361 -24489873.201 3220836.618 10 0 56598 7200.00000 0 6105095.873 -23934861.714 6384734.398 10 0 56598 8100.00000 0 5823324.692 -22980026.222 9424667.320 10 0 56598 9000.00000 0 5603923.268 -21644285.659 12281578.916 10 0 56598 9900.00000 0 5498177.621 -19959358.359 14899946.237 10 0 56598 10800.00000 0 5550721.879 -17968568.043 17228861.329 10 0 56598 11700.00000 0 5797444.783 -15725178.864 19223023.845 10 0 56598 12600.00000 0 6263773.466 -13290328.443 20843625.233 10 0 56598 13500.00000 0 6963407.967 -10730644.579 22059107.203 10 0 56598 14400.00000 0 7897561.007 -8115644.555 22845779.599 10 0 56598 15300.00000 0 9054736.257 -5515025.122 23188285.534 10 0 56598 16200.00000 0 10411055.739 -2995955.715 23079904.637 10 0 56598 17100.00000 0 11931123.856 -620487.267 22522688.306 10 0 56598 18000.00000 0 13569392.896 1556815.657 21527424.085 10 0 56598 18900.00000 0 15271973.688 3490921.214 20113429.511 10 0 56598 19800.00000 0 16978816.201 5147970.245 18308179.053 10 0 56598 20700.00000 0 18626168.994 6506441.953 16146771.041 10 0 56598 21600.00000 0 20149214.497 7557797.364 13671244.634 10 0 56598 22500.00000 0 21484769.366 8306574.586 10929759.905 10 0 56598 23400.00000 0 22573936.048 8769932.967 7975657.066 10 0 56598 24300.00000 0 23364593.618 8976666.653 4866413.346 10 0 56598 25200.00000 0 23813622.494 8965730.535 1662518.251 10 0 56598 26100.00000 0 23888768.844 8784342.232 -1573710.141 10 0 56598 27000.00000 0 23570069.733 8485741.862 -4779344.067 10 0 56598 27900.00000 0 22850778.757 8126705.700 -7892075.602 10 0 56598 28800.00000 0 21737753.096 7764920.211 -10851432.012 10 0 56598 29700.00000 0 20251285.882 7456328.600 -13599952.749 10 0 56598 30600.00000 0 18424391.112 7252562.881 -16084304.868 10 0 56598 31500.00000 0 16301571.518 7198570.474 -18256315.053 10 0 56598 32400.00000 0 13937121.279 7330535.732 -20073898.596 10 0 56598 33300.00000 0 11393034.728 7674184.031 -21501867.923 10 0 56598 34200.00000 0 8736608.362 8243539.630 -22512605.773 10 0 56598 35100.00000 0 6037835.765 9040189.306 -23086591.087 10 0 56598 36000.00000 0 3366703.192 10053082.522 -23212768.423 10 0 56598 36900.00000 0 790497.344 11258876.419 -22888754.687 10 0 56598 37800.00000 0 -1628764.100 12622811.379 -22120879.962 10 0 56598 38700.00000 0 -3836673.970 14100080.923 -20924062.069 10 0 56598 39600.00000 0 -5788453.350 15637639.194 -19321517.458 10 0 56598 40500.00000 0 -7450563.331 17176371.273 -17344313.811 10 0 56598 41400.00000 0 -8801845.283 18653536.387 -15030772.538 10 0 56598 42300.00000 0 -9834143.373 20005382.621 -12425732.076 10 0 56598 43200.00000 0 -10552384.606 21169824.386 -9579685.468 10 0 56598 44100.00000 0 -10974113.960 22089071.008 -6547808.067 10 0 56598 45000.00000 0 -11128504.759 22712096.431 -3388893.602 10 0 56598 45900.00000 0 -11054886.446 22996846.337 -164218.627 10 0 56598 46800.00000 0 -10800852.013 22912089.614 3063642.995 10 0 56598 47700.00000 0 -10420025.135 22438835.734 6232032.622 10 0 56598 48600.00000 0 -9969581.455 21571257.543 9279422.832 10 0 56598 49500.00000 0 -9507628.951 20317079.612 12146613.121 10 0 56598 50400.00000 0 -9090558.352 18697414.641 14777881.715 10 0 56598 51300.00000 0 -8770475.981 16746053.555 17122070.875 10 0 56598 52200.00000 0 -8592827.971 14508237.801 19133584.337 10 0 56598 53100.00000 0 -8594316.811 12038964.166 20773277.237 10 0 56598 54000.00000 0 -8801198.858 9400891.977 22009221.084 10 0 56598 54900.00000 0 -9228035.489 6661939.153 22817328.798 10 0 56598 55800.00000 0 -9876951.391 3892666.733 23181827.520 10 0 56598 56700.00000 0 -10737432.207 1163560.226 23095569.895 10 0 56598 57600.00000 0 -11786671.053 -1457679.522 22560177.580 10 0 56598 58500.00000 0 -12990450.219 -3908723.499 21586013.924 10 0 56598 59400.00000 0 -14304521.834 -6134972.467 20191986.045 10 0 56598 60300.00000 0 -15676430.127 -8091587.880 18405179.740 10 0 56598 61200.00000 0 -17047699.070 -9745111.531 16260334.002 10 0 56598 62100.00000 0 -18356293.623 -11074606.979 13799165.052 10 0 56598 63000.00000 0 -19539250.938 -12072275.843 11069552.794 10 0 56598 63900.00000 0 -20535370.427 -12743524.064 8124605.613 10 0 56598 64800.00000 0 -21287848.894 -13106476.587 5021621.885 10 0 56598 65700.00000 0 -21746749.032 -13190962.237 1820968.837 10 0 56598 66600.00000 0 -21871196.534 -13037012.965 -1415098.699 10 0 56598 67500.00000 0 -21631212.576 -12692942.355 -4623655.905 10 0 56598 68400.00000 0 -21009103.874 -12213086.006 -7742337.437 10 0 56598 69300.00000 0 -20000351.420 -11655300.677 -10710553.978 10 0 56598 70200.00000 0 -18613960.296 -11078329.048 -13470671.587 10 0 56598 71100.00000 0 -16872255.813 -10539142.406 -15969130.632 10 0 56598 72000.00000 0 -14810134.650 -10090374.039 -18157482.367 10 0 56598 72900.00000 0 -12473802.483 -9777951.917 -19993323.417 10 0 56598 73800.00000 0 -9919050.900 -9639030.408 -21441110.612 10 0 56598 74700.00000 0 -7209145.517 -9700307.806 -22472841.173 10 0 56598 75600.00000 0 -4412412.934 -9976799.982 -23068586.141 10 0 56598 76500.00000 0 -1599626.292 -10471121.182 -23216867.721 10 0 56598 77400.00000 0 1158702.728 -11173301.752 -22914874.195 10 0 56598 78300.00000 0 3795014.232 -12061150.139 -22168508.992 10 0 56598 79200.00000 0 6247262.491 -13101144.050 -20992273.439 10 0 56598 80100.00000 0 8461245.439 -14249813.599 -19408985.602 10 0 56598 81000.00000 0 10392606.114 -15455558.994 -17449340.503 10 0 56598 81900.00000 0 12008424.367 -16660827.255 -15151319.714 10 0 56598 82800.00000 0 13288333.850 -17804557.370 -12559461.159 10 0 56598 83700.00000 0 14225118.943 -18824792.061 -9724002.446 10 0 56598 84600.00000 0 14824767.682 -19661347.047 -6699913.523 10 0 56598 85500.00000 0 15105979.141 -20258426.010 -3545836.736 10 0 56599 0.00000 0 15099146.566 -20567071.425 -322954.343 10 0 56599 900.00000 0 14844859.332 -20547347.576 2906195.374 10 0 56599 1800.00000 0 14391987.092 -20170164.289 6078929.457 10 0 56599 2700.00000 0 13795426.997 -19418662.023 9133636.927 10 0 56599 3600.00000 0 13113609.268 -18289100.792 12010975.972 10 0 56599 4500.00000 0 12405866.547 -16791212.925 14655028.464 10 0 56599 5400.00000 0 11729778.374 -14948004.028 17014389.029 10 0 56599 6300.00000 0 11138603.187 -12795008.827 19043167.302 10 0 56599 7200.00000 0 10678906.624 -10379031.776 20701883.536 10 0 56599 8100.00000 0 10388486.613 -7756423.763 21958240.086 10 0 56599 9000.00000 0 10294683.274 -4990965.708 22787753.608 10 0 56599 9900.00000 0 10413145.428 -2151446.429 23174235.543 10 0 56599 10800.00000 0 10747106.271 690965.175 23110111.471 10 0 56599 11700.00000 0 11287199.359 3465444.895 22596572.895 10 0 56599 12600.00000 0 12011823.265 6104221.963 21643558.270 10 0 56599 13500.00000 0 12888040.114 8545159.567 20269563.331 10 0 56599 14400.00000 0 13872970.639 10734100.036 18501284.019 10 0 56599 15300.00000 0 14915627.324 12626877.364 16373098.604 10 0 56599 16200.00000 0 15959108.511 14190913.571 13926398.781 10 0 56599 17100.00000 0 16943060.920 15406332.857 11208782.501 10 0 56599 18000.00000 0 17806306.381 16266547.609 8273124.337 10 0 56599 18900.00000 0 18489521.464 16778292.718 5176541.636 10 0 56599 19800.00000 0 18937856.199 16961107.929 1979276.983 10 0 56599 20700.00000 0 19103380.594 16846291.298 -1256480.543 10 0 56599 21600.00000 0 18947254.897 16475369.334 -4467811.641 10 0 56599 22500.00000 0 18441531.284 15898149.828 -7592296.149 10 0 56599 23400.00000 0 17570510.445 15170440.944 -10569230.671 10 0 56599 24300.00000 0 16331595.441 14351534.171 -13340810.252 10 0 56599 25200.00000 0 14735606.621 13501558.369 -15853250.751 10 0 56599 26100.00000 0 12806544.232 12678817.295 -18057829.964 10 0 56599 27000.00000 0 10580808.578 11937223.177 -19911827.597 10 0 56599 27900.00000 0 8105910.190 11323934.444 -21379346.436 10 0 56599 28800.00000 0 5438723.769 10877296.678 -22431999.554 10 0 56599 29700.00000 0 2643358.263 10625172.736 -23049451.282 10 0 56599 30600.00000 0 -211268.887 10583731.471 -23219802.473 10 0 56599 31500.00000 0 -3054053.280 10756745.077 -22939813.539 10 0 56599 32400.00000 0 -5814413.153 11135423.903 -22214961.731 10 0 56599 33300.00000 0 -8424975.877 11698795.152 -21059332.015 10 0 56599 34200.00000 0 -10824131.231 12414609.371 -19495343.843 10 0 56599 35100.00000 0 -12958346.950 13240736.769 -17553318.958 10 0 56599 36000.00000 0 -14784151.783 14126995.070 -15270898.120 10 0 56599 36900.00000 0 -16269704.827 15017332.629 -12692317.434 10 0 56599 37800.00000 0 -17395886.910 15852275.646 -9867557.498 10 0 56599 38700.00000 0 -18156869.445 16571537.112 -6851381.033 10 0 56599 39600.00000 0 -18560137.603 17116678.060 -3702276.975 10 0 56599 40500.00000 0 -18625967.425 17433709.233 -481330.935 10 0 56599 41400.00000 0 -18386379.136 17475523.396 2748956.497 10 0 56599 42300.00000 0 -17883610.866 17204055.337 5925880.727 10 0 56599 43200.00000 0 -17168177.200 16592077.733 8987749.929 10 0 56599 44100.00000 0 -16296594.421 15624556.134 11875083.815 10 0 56599 45000.00000 0 -15328868.463 14299504.726 14531770.809 10 0 56599 45900.00000 0 -14325851.614 12628305.369 16906160.840 10 0 56599 46800.00000 0 -13346579.613 10635474.915 18952072.307 10 0 56599 47700.00000 0 -12445701.573 8357888.982 20629693.330 10 0 56599 48600.00000 0 -11671111.313 5843493.145 21906359.634 10 0 56599 49500.00000 0 -11061880.109 3149553.926 22757193.844 10 0 56599 50400.00000 0 -10646578.214 340521.411 23165593.600 10 0 56599 51300.00000 0 -10442056.106 -2514408.497 23123558.903 10 0 56599 52200.00000 0 -10452737.025 -5343931.580 22631852.144 10 0 56599 53100.00000 0 -10670450.878 -8077363.337 21699987.448 10 0 56599 54000.00000 0 -11074816.728 -10647344.556 20346049.231 10 0 56599 54900.00000 0 -11634157.928 -12992412.220 18596343.133 10 0 56599 55800.00000 0 -12306911.413 -15059328.848 16484885.755 10 0 56599 56700.00000 0 -13043471.667 -16805073.526 14052742.837 10 0 56599 57600.00000 0 -13788391.335 -18198411.868 11347228.518 10 0 56599 58500.00000 0 -14482845.180 -19220979.717 8420981.309 10 0 56599 59400.00000 0 -15067252.703 -19867835.904 5330934.945 10 0 56599 60300.00000 0 -15483947.885 -20147461.807 2137204.514 10 0 56599 61200.00000 0 -15679782.361 -20081208.742 -1098089.733 10 0 56599 62100.00000 0 -15608551.148 -19702217.780 -4312037.290 10 0 56599 63000.00000 0 -15233137.557 -19053858.824 -7442166.580 10 0 56599 63900.00000 0 -14527286.033 -18187756.107 -10427663.636 10 0 56599 64800.00000 0 -13476927.472 -17161484.702 -13210555.999 10 0 56599 65700.00000 0 -12081000.729 -16036036.213 -15736838.464 10 0 56599 66600.00000 0 -10351735.419 -14873161.293 -17957518.625 10 0 56599 67500.00000 0 -8314383.876 -13732701.366 -19829562.223 10 0 56599 68400.00000 0 -6006413.211 -12670021.864 -21316720.534 10 0 56599 69300.00000 0 -3476190.980 -11733654.608 -22390224.509 10 0 56599 70200.00000 0 -781218.866 -10963247.675 -23029333.219 10 0 56599 71100.00000 0 2014012.739 -10387907.872 -23221727.034 10 0 56599 72000.00000 0 4840460.738 -10025004.353 -22963738.808 10 0 56599 72900.00000 0 7627155.827 -9879482.453 -22260419.418 10 0 56599 73800.00000 0 10303911.665 -9943715.616 -21125436.834 10 0 56599 74700.00000 0 12804005.520 -10197900.928 -19580810.864 10 0 56599 75600.00000 0 15066720.527 -10610981.215 -17656488.589 10 0 56599 76500.00000 0 17039645.279 -11142054.886 -15389768.220 10 0 56599 77400.00000 0 18680636.288 -11742214.373 -12824581.956 10 0 56599 78300.00000 0 19959362.676 -12356736.190 -10010650.942 10 0 56599 79200.00000 0 20858369.527 -12927530.757 -7002527.880 10 0 56599 80100.00000 0 21373616.071 -13395749.160 -3858545.210 10 0 56599 81000.00000 0 21514466.620 -13704437.111 -639688.640 10 0 56599 81900.00000 0 21303134.928 -13801124.142 2591582.529 10 0 56599 82800.00000 0 20773605.367 -13640238.449 5772545.485 10 0 56599 83700.00000 0 19970076.361 -13185244.862 8841430.928 10 0 56599 84600.00000 0 18944991.532 -12410414.769 11738623.273 10 0 56599 85500.00000 0 17756741.423 -11302152.194 14407820.365 99